Location: *
(18.5200°S, 46.4500°E)
Time: 07:48:42
(UTC+00:00)

FengYun 1-2 T - Pass Details

Date: 19 July 2019
Orbit: 847 x 881 km, 98.7° (Epoch: 26 August)

Event Time Altitude Azimuth Distance (km) Brightness Sun altitude
Exits shadow 15:43:14 - 160° (SSE) 2,790 6.6 -16.1°
Reaches altitude 10° 15:43:55 10° 159° (SSE) 2,529 6.3 -16.2°
Maximum altitude 15:49:29 62° 78° (ENE) 971 4.2 -17.5°
Drops below altitude 10° 15:54:56 10° 358° (N) 2,483 6.9 -18.7°
Sets 15:57:18 0° 355° (N) 3,408 7.6 -19.3°
